Regional Weather Roundup
Issued by NWS Upton, NY

Current Version | Previous Version | Text Only | Print | Product List | Glossary On
Versions: 1 2 3 4 5 6 7 8 9 10 11 12 13 14 15 16 17 18 19 20 21 22 23 24 25 26 27 28 29 30 31 32 33 34 35 36 37 38 39 40 41 42 43 44 45 46 47 48 49 50
000
ASUS41 KOKX 192205
RWROKX

REGIONAL WEATHER ROUNDUP
NATIONAL WEATHER SERVICE NEW YORK NY
600 PM EDT SUN OCT 19 2014

NOTE: "FAIR" INDICATES FEW OR NO CLOUDS BELOW 12,000 FEET WITH NO
SIGNIFICANT WEATHER AND/OR OBSTRUCTIONS TO VISIBILITY.

NYZ071-072-176-178-NJZ106-104-192300-
NEW YORK CITY METRO AREA


CITY           SKY/WX    TMP DP  RH WIND       PRES   REMARKS
CENTRAL PARK   CLEAR     50  25  37 NW9       30.01R
LAGUARDIA APRT PTCLDY    50  29  44 NW16G24   29.97R
KENNEDY INTL   PTCLDY    51  25  36 NW20G28   29.98R
NEWARK/LIBERTY PTCLDY    50  25  37 NW16G26   29.99R
BRNX BOT. GARD   N/A    N/A N/A N/A NW15      30.00R
TETERBORO      CLEAR     49  25  39 NW13G25   29.98R
$$

NYZ177-179-078>081-192300-
LONG ISLAND NEW YORK

CITY           SKY/WX    TMP DP  RH WIND       PRES   REMARKS
FARMINGDALE    CLEAR     51  27  39 N13G23    29.96R
ISLIP          PTCLDY    50  30  46 NW14G25   29.93R
SHIRLEY        NOT AVBL
WESTHAMPTON    CLEAR     50  27  40 NW14G25   29.94R
MONTAUK POINT    N/A     52  32  46 NW18G30   29.91R
$$

NYZ052-065-067-192300-
HUDSON VALLEY

CITY           SKY/WX    TMP DP  RH WIND       PRES   REMARKS
WHITE PLAINS   PTCLDY    47  26  44 NW8G18    29.96R
NEWBURGH       PTCLDY    46  27  46 N13G20    29.99R
MONTGOMERY     CLEAR     45  26  47 NW13      29.99R
POUGHKEEPSIE   CLEAR     47  25  42 NW9       29.99R
ALBANY         MOCLDY    44  25  47 NW12G23   29.99R
$$

NJZ001-105-106-008-010-013-015-019>022-104-192300-
NEW JERSEY

CITY           SKY/WX    TMP DP  RH WIND       PRES   REMARKS
NEWARK/LIBERTY PTCLDY    50  25  37 NW16G26   29.99R
TETERBORO      CLEAR     49  25  39 NW13G25   29.98R
CALDWELL       CLEAR     48  25  40 NW7       30.01R
MORRISTOWN     CLEAR     48  27  43 N12G18    30.01R
SOMERVILLE     CLEAR     50  27  40 VRB6      29.99R
SUSSEX         CLEAR     47  26  44 VRB3      30.01R
ANDOVER          N/A     45  25  45 N8        30.01R
TRENTON        CLEAR     50  26  39 N7        30.00R
MILLVILLE      CLEAR     52  30  43 NW7       30.02R
ATLANTIC CITY  CLEAR     51  29  42 NW14G21   30.00R
WRIGHTSTOWN    CLEAR     50  29  45 NW8       29.98R
TOMS RIVER     CLEAR     48  27  43 NW5       30.00R
BELMAR         CLEAR     50  27  40 NW14G21   29.98R
$$

PAZ047>061-062-071-192300-
EASTERN PENNSYLVANIA

CITY           SKY/WX    TMP DP  RH WIND       PRES   REMARKS
PHILADELPHIA   PTCLDY    54  26  34 NW14      30.03R
ALLENTOWN      CLEAR     50  25  37 NW7       30.01R
SCRANTON       CLEAR     46  25  43 N10       30.02R
$$

CTZ002-004>006-009-010-012-RIZ004-006-007-MAZ004-011-015-192300-
SOUTHERN NEW ENGLAND
 IN CT

CITY           SKY/WX    TMP DP  RH WIND       PRES   REMARKS
BRADLEY INTL   MOCLDY    47  27  45 NW17G24   29.92R
HARTFORD       MOCLDY    48  26  42 W9G23     29.94R
DANBURY        CLEAR     46  25  43 NW6G20    29.97R
WTRBRY/OXFORD  PTCLDY    45  23  42 N15G25    29.95R
BRIDGEPORT     CLEAR     50  26  39 N15G23    29.95R
MERIDEN        PTCLDY    47  26  44 NW15G22   29.95R
NEW HAVEN      PTCLDY    50  26  39 N13G22    29.95R
CHESTER        FAIR      46  30  53 NW13      29.92R
GROTON         MOCLDY    49  30  48 NW15G22   29.90R
WILLIMANTIC    CLOUDY    49  29  46 NW13G18   29.91R

 IN RI

CITY           SKY/WX    TMP DP  RH WIND       PRES   REMARKS
PROVIDENCE     MOCLDY    51  31  46 NW10G21   29.87R
BLOCK ISLAND   CLOUDY    50  30  46 NW16G23   29.87R
WESTERLY       CLOUDY    50  30  46 VRB7      29.89R

 IN MA

CITY           SKY/WX    TMP DP  RH WIND       PRES   REMARKS
BOSTON         CLOUDY    49  31  49 N15G28    29.86R
WORCESTER      CLOUDY    43  29  57 NW13      29.88R
WESTFIELD      CLOUDY    46  27  47 W15G24    29.93R
PROVINCETOWN   CLOUDY    52  34  50 NW16G26   29.82R
NANTUCKET      CLOUDY    53  36  52 N18G24    29.80R
$$

ANZ330-335-338-340-345-350-353-355-192300-
COASTAL MARINE OBSERVATIONS


STATION/POSITION TIME  SKY/WX   TEMP    WIND        PRES    VSBY  WAVE
                                AIR SEA DIR/SP/G                  HT/PER
                 (UTC)          (F)     (DEG/KT/KT) (MB)    (MI)  (FT/S)
NY HARB ENTRANCE NOT AVBL
4S FIRE IS       2200               64                N/A           4/13
20S FIRE ISLAND  2200            53 64  320/ 21/ 27 1013.5          5/ 6
23SW MTP         2200                                 N/A           4/ 5
HUDSON CANYON    2200            55 66  320/ 23/ 29 1012.4          8/ 6
EXECUTION ROCKS  2200            53 64  300/ 19/ 25   N/A
WESTERN LI SOUND 2200            52     310/ 17/ 23   N/A           2/ 3
CENTRAL LI SOUND 2100            52 64  310/ 21/ 27   N/A           2/ 4
EASTERN LI SOUND 2100            53 64  330/ 17/ 23   N/A
ROBBINS REEF     2200            50     320/ 18/ 26 1013.9
$$


>>>>>>>>>>>>>>>>>>>>>>>>>>>> KEY <<<<<<<<<<<<<<<<<<<<<<<<<<<
>                                                          <
>     SKY/WX - SKY CONDITION/PRESENT WEATHER               <
>     TMP    - TEMPERATURE IN FAHRENHEIT                   <
>     DP     - DEWPOINT IN FAHRENHEIT                      <
>     RH     - RELATIVE HUMIDITY IN PERCENT                <
>     WIND   - DIRECTION AND SPEED IN MPH                  <
>     PRES   - MEAN SEA LEVEL PRESSURE IN INCHES OF HG     <
>     WCI    - WIND CHILL INDEX                            <
>     VSB    - VISIBILITY IN MILES                         <
>     HX     - HEAT INDEX                                  <
>     TC     - TEMPERATURE IN CELSIUS                      <
>     VRB    - VARIABLE WIND DIRECTION                     <
>                                                          <
>>>>>>>>>>>>>>>>>>>>>>>>>>>> KEY <<<<<<<<<<<<<<<<<<<<<<<<<<<




USA.gov is the U.S. government's official web portal to all federal, state and local government web resources and services.